[[{"header":{"parameterUnit":"m.s-1","parameterCategory":1,"la1":30.2991,"la2":30.254,"lo1":-89.0895,"lo2":-89.0444,"dy":0.0017,"dx":0.0017,"nx":28,"ny":28,"refTime":"2025-07-16T21:00:00:Z","depth":0,"parameterNumber":2,"parameterNumberName":"U-component_of_WINDS"},"data":[0,0,0,0,0,0,0,0,0,0,0,0,0,0,0,0,0,0,0,0,0,0,0,0,0,0,0,0,0,0,0,0,0,0,0,0,0,0,0,0,0,0,0,0,0,0,0,0,0,0,0,0,0,0,0,0,0,0,0.1828,0.1831,0,0.2082,0.2085,0.2088,0.219,0.219,0.2189,0.2188,0.2458,0.2465,0.2473,0,0,0,0,0,0,0,0,0,0,0,0,0,0.1439,0.1446,0.1828,0.1831,0.1834,0.2082,0.2085,0.2089,0.219,0.219,0.2189,0.2188,0.2455,0.2464,0.2474,0,0,0,0,0,0,0,0,0,0,0,0,0,0.1642,0.1448,0.1827,0.1914,0.1925,0.2081,0.2086,0.209,0.2191,0.219,0.2189,0.2188,0.2452,0.2463,0.2475,0.2566,0,0,0.251,0.2515,0,0,0,0,0,0,0,0,0.1631,0.1656,0.1898,0.1909,0.1921,0.2103,0.2047,0.225,0.2191,0.209,0.2188,0.2187,0.2341,0.2362,0.2412,0.2578,0.259,0.2511,0.2518,0.2523,0.2527,0,0,0,0,0,0,0,0.1616,0.1646,0.1929,0.1902,0.1915,0.1944,0.1972,0.2086,0.2218,0.2099,0.2107,0.2135,0.2347,0.24,0.2419,0.2594,0.2511,0.2521,0.2529,0.2533,0.285,0.2852,0,0,0,0,0,0,0.1587,0.1634,0.1921,0.1936,0.177,0.1952,0.1983,0.2046,0.2217,0.2242,0.2135,0.2139,0.2381,0.2405,0.2429,0.2548,0.2523,0.2534,0.2541,0.2849,0.2851,0.2852,0,0,0,0,0,0,0.1578,0.1611,0.191,0.1787,0.1827,0.1959,0.2029,0.2051,0.2105,0.2245,0.227,0.2165,0.2381,0.2413,0.2531,0.2559,0.254,0.255,0.2847,0.2849,0.2851,0.2786,0,0,0,0,0,0,0.1566,0.1607,0.1641,0.1787,0.1834,0.2005,0.2031,0.2057,0.2124,0.213,0.2279,0.2303,0.2383,0.2513,0.2542,0.2574,0.2559,0.2845,0.2848,0.2851,0.2786,0.2785,0.2785,0,0,0,0,0,0.1552,0.1614,0.1642,0.1676,0.1878,0.2007,0.2034,0.2122,0.2125,0.2162,0.2252,0.2298,0.255,0.2524,0.2558,0.2594,0.2844,0.2847,0.2851,0.2786,0.2785,0.2785,0,0,0,0,0,0,0.1471,0.1635,0.1668,0.1778,0.1877,0.2023,0.2072,0.2118,0.222,0.2222,0.233,0.2363,0.2473,0.2546,0.2513,0.2692,0.2701,0.2711,0.264,0.2641,0.264,0.2621,0.2569,0,0,0,0,0,0.1465,0.1553,0.1693,0.1777,0.1825,0.1939,0.1999,0.2058,0.2166,0.2209,0.2308,0.2414,0.2517,0.2583,0.2686,0.2797,0.2832,0.2839,0.2838,0.2837,0.2845,0.2911,0.2916,0.2863,0.2863,0.2863,0,0,0.1456,0.1556,0.1606,0.1763,0.1847,0.1938,0.1974,0.2069,0.2139,0.2225,0.2342,0.2418,0.2544,0.2658,0.2714,0.2723,0.2867,0.2841,0.2839,0.2848,0.2914,0.2919,0.2923,0.2865,0.2865,0.2864,0,0,0.1486,0.1569,0.1649,0.1731,0.1857,0.1933,0.1951,0.2091,0.2144,0.2263,0.2329,0.2415,0.259,0.2677,0.2744,0.2806,0.2854,0.2837,0.2835,0.2897,0.2902,0.2906,0.293,0.2937,0.2845,0.2844,0.2844,0,0.1459,0.1596,0.1685,0.1776,0.1845,0.1923,0.2007,0.2084,0.2237,0.2284,0.229,0.2512,0.2602,0.2739,0.2754,0.2805,0.2833,0.2821,0.2893,0.2898,0.2904,0.2928,0.2936,0.2842,0.2842,0.2842,0.2843,0,0.1558,0.1652,0.1702,0.1845,0.1919,0.2006,0.2111,0.2176,0.2229,0.2305,0.2426,0.2536,0.2663,0.27,0.2754,0.2846,0.2847,0.2872,0.2883,0.2904,0.2929,0.2939,0.2838,0.2839,0.284,0.284,0,0,0.1545,0.1734,0.1751,0.1818,0.1961,0.2038,0.2129,0.2251,0.2305,0.2408,0.249,0.2636,0.266,0.2736,0.28,0.2855,0.2899,0.2874,0.2878,0.2876,0.3009,0.299,0.2999,0.293,0.2932,0.2934,0.2999,0,0.1594,0.1758,0.1841,0.197,0.2059,0.2136,0.2216,0.2315,0.2388,0.2478,0.2561,0.2663,0.2686,0.2732,0.279,0.2881,0.2927,0.2877,0.301,0.3013,0.2977,0.3012,0.2992,0.3048,0.3009,0.3011,0.3012,0,0.1674,0.1773,0.191,0.2044,0.2085,0.2155,0.2274,0.2357,0.2471,0.2521,0.2605,0.2668,0.277,0.2773,0.2917,0.2881,0.294,0.2993,0.2998,0.3015,0.3015,0.3031,0.3068,0.3077,0.3028,0.3027,0.3025,0,0.1652,0.182,0.1924,0.1979,0.2137,0.2185,0.2254,0.2367,0.2434,0.2539,0.2585,0.27,0.2764,0.2854,0.2947,0.294,0.3083,0.3093,0.313,0.3127,0.3157,0.3155,0.3206,0.3193,0.3193,0.3193,0.3192,0,0.1699,0.1781,0.1916,0.198,0.2075,0.2171,0.2262,0.2338,0.2438,0.252,0.2594,0.2671,0.2788,0.2881,0.2955,0.3063,0.3092,0.3137,0.3156,0.3131,0.3125,0.3173,0.3172,0.3195,0.3195,0.3194,0.3194,0,0.1691,0.1784,0.1903,0.2042,0.208,0.2143,0.2264,0.2331,0.2408,0.2512,0.2542,0.2664,0.2776,0.2877,0.3027,0.3077,0.3189,0.3212,0.3149,0.3159,0.3191,0.3187,0.3275,0.3293,0.3266,0.3266,0.3266,0,0.1715,0.1779,0.1925,0.1983,0.205,0.2144,0.2213,0.2311,0.238,0.2515,0.2567,0.2683,0.2782,0.2959,0.3063,0.3178,0.3206,0.3229,0.3224,0.3197,0.3208,0.3203,0.3211,0.3228,0.3228,0.3228,0.3227,0,0.1749,0.1792,0.1887,0.1998,0.2078,0.2171,0.2267,0.2312,0.2428,0.2503,0.2617,0.2693,0.2845,0.2961,0.3088,0.3163,0.3216,0.3228,0.3243,0.3219,0.318,0.3203,0.3148,0.3226,0.3226,0.3226,0.3226,0.3226,0.176,0.182,0.1932,0.2035,0.2117,0.2205,0.2274,0.2359,0.2455,0.2584,0.2636,0.2753,0.2868,0.3043,0.3117,0.3212,0.3223,0.3244,0.325,0.3254,0.3249,0.3163,0.3236,0.3236,0.3236,0.3236,0.3236,0,0.1799,0.1874,0.1968,0.2098,0.218,0.2219,0.2327,0.2394,0.2495,0.2596,0.2691,0.2823,0.2936,0.3048,0.3168,0.3222,0.325,0.3251,0.3248,0.3265,0.3233,0.3208,0.3226,0.3226,0.3226,0.3226,0.3226,0.3226,0.1829,0.1934,0.199,0.2137,0.2213,0.2325,0.2384,0.2466,0.2547,0.269,0.2783,0.2854,0.2961,0.309,0.3196,0.3227,0.3268,0.3262,0.33,0.3268,0.3267,0.3267,0.3245,0.327,0.327,0.3325,0.3325,0.3326]},{"header":{"parameterUnit":"m.s-1","parameterCategory":1,"la1":30.2991,"la2":30.254,"lo1":-89.0895,"lo2":-89.0444,"dy":0.0017,"dx":0.0017,"nx":28,"ny":28,"refTime":"2025-07-16T21:00:00:Z","depth":0,"parameterNumber":3,"parameterNumberName":"V-component_of_WINDS"},"data":[0,0,0,0,0,0,0,0,0,0,0,0,0,0,0,0,0,0,0,0,0,0,0,0,0,0,0,0,0,0,0,0,0,0,0,0,0,0,0,0,0,0,0,0,0,0,0,0,0,0,0,0,0,0,0,0,0,0,3.4484,3.4486,0,3.4621,3.4622,3.4624,3.4651,3.4649,3.4648,3.4647,3.4791,3.4795,3.48,0,0,0,0,0,0,0,0,0,0,0,0,0,3.4253,3.4258,3.4484,3.4486,3.4488,3.462,3.4622,3.4624,3.4651,3.4649,3.4648,3.4647,3.4789,3.4795,3.48,0,0,0,0,0,0,0,0,0,0,0,0,0,3.4368,3.4259,3.4484,3.4517,3.4521,3.462,3.4622,3.4625,3.4651,3.4649,3.4648,3.4646,3.4787,3.4794,3.4801,3.4878,0,0,3.4823,3.4826,0,0,0,0,0,0,0,0,3.4362,3.4377,3.451,3.4515,3.452,3.4617,3.4594,3.471,3.4651,3.4602,3.4647,3.4645,3.4734,3.4746,3.4775,3.4885,3.4891,3.4824,3.4828,3.4831,3.4834,0,0,0,0,0,0,0,3.4354,3.4371,3.4538,3.4512,3.4518,3.4527,3.4541,3.4616,3.4676,3.4606,3.4608,3.4624,3.4737,3.4768,3.4779,3.4893,3.4824,3.483,3.4835,3.4837,3.5079,3.5081,0,0,0,0,0,0,3.4339,3.4364,3.4534,3.4542,3.4435,3.4532,3.4549,3.4587,3.4675,3.4686,3.4625,3.4625,3.4756,3.477,3.4784,3.4883,3.4831,3.4838,3.4842,3.5077,3.5079,3.5082,0,0,0,0,0,0,3.4334,3.4354,3.4529,3.4454,3.4477,3.4538,3.4581,3.4591,3.4622,3.4689,3.4701,3.4646,3.4756,3.4774,3.4855,3.4888,3.4841,3.4848,3.5074,3.5078,3.508,3.5079,0,0,0,0,0,0,3.4327,3.4352,3.438,3.4454,3.4481,3.4596,3.4583,3.4595,3.4634,3.4635,3.4711,3.4723,3.4756,3.4845,3.4863,3.4897,3.4854,3.5072,3.5076,3.5079,3.5076,3.5082,3.5086,0,0,0,0,0,3.4319,3.4373,3.4381,3.4401,3.4516,3.4597,3.4613,3.4648,3.4636,3.4667,3.4711,3.472,3.4882,3.4853,3.4873,3.491,3.507,3.5075,3.5079,3.5074,3.508,3.5086,0,0,0,0,0,0,3.4301,3.4384,3.4393,3.4473,3.4528,3.4601,3.464,3.4653,3.4714,3.4712,3.4755,3.4773,3.4853,3.489,3.4856,3.4992,3.4975,3.4984,3.4964,3.4971,3.4976,3.4965,3.486,0,0,0,0,0,3.4306,3.4363,3.4433,3.4497,3.4524,3.4578,3.4614,3.4638,3.4697,3.472,3.477,3.4828,3.4893,3.4934,3.4997,3.5082,3.5102,3.5119,3.5123,3.5127,3.5134,3.5187,3.5196,3.5097,3.5097,3.5097,0,0,3.4317,3.437,3.4403,3.4495,3.454,3.4601,3.4597,3.466,3.4706,3.473,3.4811,3.485,3.4919,3.5004,3.5044,3.5037,3.5167,3.5133,3.5135,3.5141,3.5193,3.5202,3.5211,3.51,3.5099,3.5099,0,0,3.4369,3.4413,3.4473,3.452,3.4589,3.4625,3.464,3.4713,3.474,3.4821,3.4842,3.4899,3.5008,3.5057,3.5096,3.5173,3.5186,3.5193,3.5218,3.5269,3.5277,3.5284,3.5314,3.5324,3.52,3.52,3.52,0,3.4375,3.4465,3.4503,3.4566,3.4608,3.4633,3.4696,3.474,3.4826,3.4856,3.4847,3.4988,3.5035,3.5134,3.5154,3.5184,3.5205,3.5184,3.5272,3.528,3.5287,3.5317,3.5328,3.52,3.52,3.52,3.52,0,3.447,3.4533,3.4574,3.4657,3.4704,3.4766,3.4816,3.4859,3.488,3.4918,3.5004,3.5063,3.514,3.5165,3.5186,3.5269,3.5263,3.5263,3.5247,3.5297,3.5325,3.5337,3.5201,3.5201,3.5201,3.5201,0,0,3.451,3.4618,3.4632,3.4672,3.4753,3.4804,3.487,3.4945,3.4983,3.5043,3.5102,3.5196,3.5198,3.5243,3.527,3.5314,3.5376,3.5309,3.5312,3.5321,3.5476,3.5476,3.5488,3.5385,3.5387,3.5389,3.5471,0,3.4573,3.4691,3.4729,3.4828,3.4889,3.4917,3.4976,3.5033,3.5072,3.5131,3.5175,3.5242,3.5237,3.5265,3.531,3.5358,3.5407,3.5353,3.5443,3.5445,3.5425,3.5502,3.5502,3.5576,3.5482,3.5483,3.5485,0,3.4661,3.4724,3.4829,3.4906,3.4934,3.4985,3.506,3.5115,3.5183,3.5209,3.5261,3.5286,3.536,3.5341,3.5446,3.5408,3.5448,3.5478,3.5482,3.5492,3.5468,3.5516,3.56,3.5611,3.5502,3.5501,3.55,0,3.4683,3.4794,3.4872,3.4905,3.4997,3.5034,3.5074,3.514,3.5185,3.5251,3.5281,3.5355,3.5396,3.5455,3.5501,3.5481,3.5603,3.5586,3.5629,3.5628,3.5652,3.565,3.5745,3.5676,3.5676,3.5676,3.5676,0,3.4749,3.4812,3.4884,3.4931,3.5006,3.5051,3.5124,3.5166,3.5226,3.5285,3.5315,3.537,3.5427,3.5491,3.5528,3.5611,3.5629,3.5654,3.5663,3.5652,3.5649,3.5679,3.5675,3.5679,3.5678,3.5678,3.5677,0,3.4785,3.4834,3.4922,3.5003,3.5026,3.5077,3.5148,3.5198,3.5239,3.5314,3.5335,3.54,3.5478,3.553,3.5628,3.5654,3.5746,3.5753,3.5722,3.5727,3.5767,3.5763,3.5885,3.5905,3.5821,3.5822,3.5822,0,3.4823,3.4874,3.4961,3.5003,3.5044,3.511,3.5157,3.5206,3.5253,3.5338,3.5378,3.5458,3.5524,3.5647,3.5705,3.5783,3.5793,3.5831,3.5805,3.5794,3.5797,3.5794,3.5801,3.5835,3.5835,3.5836,3.5836,0,3.4888,3.4912,3.4977,3.5052,3.5107,3.5169,3.523,3.5264,3.5324,3.5377,3.5456,3.5508,3.5611,3.5691,3.5775,3.5819,3.5839,3.5844,3.5859,3.5848,3.5829,3.5842,3.5735,3.5841,3.584,3.584,3.584,3.584,3.4929,3.4976,3.5047,3.512,3.5172,3.523,3.5282,3.5332,3.5399,3.5486,3.5511,3.5596,3.5668,3.5783,3.5829,3.5898,3.5894,3.5914,3.592,3.5924,3.5926,3.5818,3.5913,3.5913,3.5913,3.5913,3.5913,0,3.4997,3.5045,3.5111,3.5198,3.5257,3.5271,3.5342,3.5391,3.5464,3.5529,3.5595,3.5689,3.5768,3.5834,3.5917,3.596,3.5972,3.598,3.5978,3.5989,3.5923,3.5903,3.597,3.597,3.597,3.597,3.597,3.597,3.5039,3.5122,3.5154,3.5265,3.5313,3.5395,3.5435,3.5491,3.5544,3.5648,3.5714,3.5756,3.5824,3.5912,3.5987,3.6005,3.6035,3.6042,3.6062,3.5999,3.5993,3.5987,3.5969,3.6048,3.6048,3.6123,3.6124,3.6124]}]]